EW9082 Providence RI US current weather conditions

sailwx.info

Wind from 276

Air temperature 17.8° C
Dewpoint -1.5° C

Last reported at 2020-Apr-06 18:01 UTC.
Time now 2020-Apr-06 18:26 UTC

Location: N 41°45' W 071°12'.
View on Google Maps.

See reports from other nearby stations

  
Tides and Currents Weather Stations Pressure Air Temp Water Temp Dewpoint Dewpoint Depression Visibility Wind Speed Wind Dir Waves Ship Positions
date/time (UTC)wind fromknots sea level pressurealtimeterstation pressurevisibilityair tempwater tempwave heightnotes
2020-Apr-06 18:01 276 17.8
2020-Apr-06 17:45 212 18.3
2020-Apr-06 17:30 296 17.8
2020-Apr-06 17:15 098 16.7
2020-Apr-06 17:00 207 17.2
2020-Apr-06 16:45 223 0 gusting 2 16.1
2020-Apr-06 16:30 311 0 gusting 3 16.1
2020-Apr-06 16:00 333 0 gusting 3 15.6
2020-Apr-06 15:47 330 0 gusting 5 15.0
2020-Apr-06 15:31 319 0 gusting 4 14.4
2020-Apr-06 15:02 305 13.3
2020-Apr-06 14:47 326 0 gusting 4 12.8
2020-Apr-06 14:31 330 1 gusting 5 12.2
2020-Apr-06 14:16 347 12.8
2020-Apr-06 14:00 314 11.7
2020-Apr-06 13:45 014 0 gusting 4 11.7
2020-Apr-06 13:30 178 1 gusting 6 10.6
2020-Apr-06 13:17 350 1 gusting 4 10.6
2020-Apr-06 13:03 326 2 gusting 6 10.0
2020-Apr-06 12:45 328 0 gusting 2 10.0
2020-Apr-06 12:31 283 0 gusting 4 9.4
2020-Apr-06 12:16 313 0 gusting 3 8.9
2020-Apr-06 12:00 321 7.8
2020-Apr-06 11:31 318 0 gusting 2 5.0
2020-Apr-06 11:16 140 2.8
2020-Apr-06 11:01 140 2.2
2020-Apr-06 10:48 140 0.6
2020-Apr-06 10:33 140 0.6
2020-Apr-06 10:17 140 0.6
2020-Apr-06 09:46 140 1.1
2020-Apr-06 09:16 140 1.1
2020-Apr-06 09:01 140 1.7
2020-Apr-06 08:46 140 1.7
2020-Apr-06 08:32 140 2.2
2020-Apr-06 08:15 140 2.8
2020-Apr-06 08:00 140 2.8
2020-Apr-06 07:46 121 2.8
2020-Apr-06 07:31 121 3.3
2020-Apr-06 07:15 121 3.9
2020-Apr-06 07:00 121 3.9
2020-Apr-06 06:31 121 4.4
2020-Apr-06 06:17 121 5.0
2020-Apr-06 06:01 121 5.0
2020-Apr-06 05:46 121 5.0
2020-Apr-06 05:30 155 5.6
2020-Apr-06 05:15 198 5.6
2020-Apr-06 05:00 141 5.6
2020-Apr-06 04:46 191 6.1
2020-Apr-06 04:31 163 6.1
2020-Apr-06 04:15 186 0 gusting 3 6.1
2020-Apr-06 04:01 148 1 gusting 3 6.1
2020-Apr-06 03:46 176 6.1
2020-Apr-06 03:31 213 1 gusting 4 6.7
2020-Apr-06 03:16 155 1 gusting 5 6.7
2020-Apr-06 03:01 149 0 gusting 3 6.1
2020-Apr-06 02:46 259 1 gusting 6 6.1
2020-Apr-06 02:30 207 0 gusting 4 6.1
2020-Apr-06 02:15 146 0 gusting 3 6.1
2020-Apr-06 02:00 171 0 gusting 4 6.1
2020-Apr-06 01:31 162 1 gusting 4 6.7
2020-Apr-06 01:15 110 0 gusting 5 6.7
2020-Apr-06 01:00 122 1 gusting 6 6.7
2020-Apr-06 00:31 230 2 gusting 6 6.7
2020-Apr-06 00:16 141 2 gusting 7 6.7
2020-Apr-06 00:01 205 1 gusting 7 7.2
2020-Apr-05 23:47 113 1 gusting 5 7.2
2020-Apr-05 23:31 078 0 gusting 6 7.2
2020-Apr-05 23:17 162 1 gusting 4 7.2
2020-Apr-05 22:46 151 2 gusting 6 7.2
2020-Apr-05 22:31 123 7.8
2020-Apr-05 22:15 092 1 gusting 5 7.8
2020-Apr-05 21:47 211 1 gusting 6 8.9
2020-Apr-05 21:31 152 0 gusting 5 10.0
2020-Apr-05 21:15 016 2 gusting 6 10.6
2020-Apr-05 21:00 139 1 gusting 6 11.1
2020-Apr-05 20:45 095 3 gusting 7 11.1
2020-Apr-05 20:31 288 4 gusting 10 11.1
2020-Apr-05 20:15 108 2 gusting 6 11.7
2020-Apr-05 20:00 135 3 gusting 8 11.7
2020-Apr-05 19:32 150 3 gusting 9 12.2
2020-Apr-05 19:16 122 2 gusting 7 12.2
2020-Apr-05 19:03 210 2 gusting 7 12.2
2020-Apr-05 18:47 162 2 gusting 6 11.7
2020-Apr-05 18:31 142 2 gusting 5 11.7
2020-Apr-05 18:15 159 1 gusting 5 11.1
2020-Apr-05 17:46 068 3 gusting 6 11.1
2020-Apr-05 17:32 094 3 gusting 9 11.1
2020-Apr-05 17:15 191 1 gusting 5 11.1
2020-Apr-05 17:00 167 2 gusting 5 11.1
2020-Apr-05 16:46 228 1 gusting 4 10.6
2020-Apr-05 16:32 137 0 gusting 5 10.6
2020-Apr-05 16:16 228 1 gusting 5 9.4
2020-Apr-05 16:01 141 0 gusting 4 8.9
2020-Apr-05 15:31 150 0 gusting 5 8.9
2020-Apr-05 15:17 172 0 gusting 3 8.3
2020-Apr-05 15:00 160 1 gusting 5 8.3
2020-Apr-05 14:46 129 8.3
2020-Apr-05 14:30 202 8.3
2020-Apr-05 14:16 140 0 gusting 1 7.8
2020-Apr-05 14:00 172 7.8
2020-Apr-05 13:46 165 0 gusting 2 7.2
2020-Apr-05 13:31 116 6.7
2020-Apr-05 13:16 137 6.7
2020-Apr-05 13:01 160 6.7
2020-Apr-05 12:46 140 6.1
2020-Apr-05 12:15 179 5.6
2020-Apr-05 12:01 207 0 gusting 1 5.6
2020-Apr-05 11:46 132 5.0
2020-Apr-05 11:15 131 3.9
2020-Apr-05 11:01 107 3.9
2020-Apr-05 10:46 106 3.9
2020-Apr-05 10:16 106 3.3
2020-Apr-05 10:00 106 3.3
2020-Apr-05 09:45 103 3.3
2020-Apr-05 09:30 103 3.3
2020-Apr-05 09:16 103 3.3
2020-Apr-05 09:01 103 3.3
2020-Apr-05 08:45 103 3.3
2020-Apr-05 08:30 103 3.3
2020-Apr-05 08:15 103 3.3
2020-Apr-05 08:00 103 2.8
2020-Apr-05 07:30 103 2.8
2020-Apr-05 07:16 103 2.8
2020-Apr-05 07:01 103 2.8
2020-Apr-05 06:46 103 2.8
2020-Apr-05 06:30 103 2.8
2020-Apr-05 06:15 103 2.8
2020-Apr-05 06:01 103 2.2
2020-Apr-05 05:46 103 2.2
2020-Apr-05 05:31 103 2.2
2020-Apr-05 05:16 103 2.2
2020-Apr-05 05:02 103 1.7
2020-Apr-05 04:46 103 1.7
2020-Apr-05 04:30 103 1.1
2020-Apr-05 04:16 103 1.1
2020-Apr-05 04:00 103 0.6
2020-Apr-05 03:31 103 1.1
2020-Apr-05 03:16 103 1.7
2020-Apr-05 03:00 103 1.7
2020-Apr-05 02:45 103 2.2
2020-Apr-05 02:30 103 2.2
2020-Apr-05 02:17 103 2.2
2020-Apr-05 02:00 103 2.8
2020-Apr-05 01:45 103 3.3
2020-Apr-05 01:30 103 3.3
2020-Apr-05 01:15 103 3.9
2020-Apr-05 01:00 105 3.9
2020-Apr-05 00:45 105 4.4
2020-Apr-05 00:31 232 5.0
2020-Apr-05 00:15 113 5.0
2020-Apr-05 00:00 075 5.6
2020-Apr-04 23:45 075 5.6
2020-Apr-04 23:16 074 6.7
2020-Apr-04 23:02 074 7.8
2020-Apr-04 22:45 085 8.3
2020-Apr-04 22:31 101 8.9
2020-Apr-04 22:15 095 9.4
2020-Apr-04 22:00 058 0 gusting 3 10.0
2020-Apr-04 21:45 061 10.6
2020-Apr-04 21:30 001 0 gusting 4 11.1
2020-Apr-04 21:15 323 11.1
2020-Apr-04 21:00 049 11.7
2020-Apr-04 20:45 056 1 gusting 6 11.7
2020-Apr-04 20:30 292 12.2
2020-Apr-04 20:01 306 0 gusting 3 11.7
2020-Apr-04 19:45 328 12.2
2020-Apr-04 19:31 316 1 gusting 5 12.2
2020-Apr-04 19:16 320 0 gusting 3 12.2
2020-Apr-04 19:00 324 1 gusting 6 11.7
2020-Apr-04 18:45 311 1 gusting 4 11.7
2020-Apr-04 18:16 324 1 gusting 5 10.6
2020-Apr-04 18:02 308 1 gusting 4 9.4